Location: Godiavel Galaoual
(15.2485°N, 12.6604°W)
Time: 22:24:59
(UTC+00:00)

Envisat - Pass Details

Date: 08 December 2021
Orbit: 764 x 766 km, 98.2° (Epoch: 24 January)

Event Time Altitude Azimuth Distance (km) Brightness Sun altitude
Rises 06:31:15 0° 347° (NNW) 3,222 5.9 -8.4°
Reaches altitude 10° 06:34:10 10° 330° (NNW) 2,295 5.0 -7.7°
Maximum altitude 06:37:38 19° 286° (WNW) 1,762 4.3 -6.9°
Drops below altitude 10° 06:41:06 10° 243° (WSW) 2,293 5.1 -6.2°
Sets 06:44:02 0° 225° (SW) 3,218 6.0 -5.5°
